, CO

(GMT )
Cottonwood Pass

Weather History for K7BM - March, 2013

Change the Weather History Date:

Friday, March 15, 2013

  Actual Average Record
Temperature  
Mean Temperature 46 °F -  
Max Temperature 55 °F - - ()
Min Temperature 37 °F - - ()
Degree Days  
Heating Degree Days 19    
Moisture  
Dew Point 11 °F    
Average Humidity 25    
Maximum Humidity 45    
Minimum Humidity 13    
Precipitation  
Precipitation 0.00 in - - ()
Sea Level Pressure  
Sea Level Pressure 30.24 in    
Wind  
Wind Speed 10 mph (NW)    
Max Wind Speed 23 mph    
Max Gust Speed 41 mph    
Visibility 10 miles    
Events      
T = Trace of Precipitation, MM = Missing Value Source: NWS Daily Summary

Daily Weather History Graph

Daily Weather History Graph

Search for Another Location

Airport or City:

Trip Planner

Search our weather history database for the weather conditions in past years. The results will help you decide how hot, cold, wet, or windy it might be!

Date:

Astronomy

Mar. 15, 2013 Rise Set
Actual Time 7:15 AM MDT 7:12 PM MDT
Civil Twilight 6:49 AM MDT 7:38 PM MDT
Nautical Twilight 6:18 AM MDT 8:09 PM MDT
Astronomical Twilight 5:47 AM MDT 8:41 PM MDT
Moon 9:10 AM MDT (3/15) 11:25 PM MDT (3/15)
Length of Visible Light 12h 49m
Length of Day
11h 56m
Waxing Crescent, 16% of the Moon is Illuminated
Mar 15
Waxing Crescent
Mar 19
First Quarter
Mar 27
Full
Apr 2
Last Quarter
Apr 10
New

Hourly Weather History & Observations

Time (MDT) Temp. Windchill Dew Point Humidity Pressure Visibility Wind Dir Wind Speed Gust Speed Precip Events Conditions
12:16 AM 42.8 °F 35.1 °F 14.0 °F 31% 30.39 in 10.0 mi NW 16.1 mph 33.4 mph N/A   Clear
12:36 AM 41.0 °F 34.7 °F 15.8 °F 36% 30.39 in 10.0 mi NNW 10.4 mph 20.7 mph N/A   Clear
12:55 AM 41.0 °F 33.9 °F 15.8 °F 36% 30.39 in 10.0 mi NW 12.7 mph 26.5 mph N/A   Clear
1:16 AM 37.4 °F 30.3 °F 17.6 °F 45% 30.38 in 10.0 mi NW 10.4 mph 17.3 mph N/A   Clear
1:36 AM 39.2 °F 33.0 °F 15.8 °F 39% 30.37 in 10.0 mi NW 9.2 mph 18.4 mph N/A   Clear
1:55 AM 41.0 °F 35.8 °F 14.0 °F 33% 30.38 in 10.0 mi NNW 8.1 mph 16.1 mph N/A   Clear
2:16 AM 41.0 °F 35.2 °F 14.0 °F 33% 30.37 in 10.0 mi NNW 9.2 mph - N/A   Clear
2:36 AM 42.8 °F 36.6 °F 14.0 °F 31% 30.37 in 10.0 mi WNW 11.5 mph 25.3 mph N/A   Clear
2:56 AM 42.8 °F 37.0 °F 14.0 °F 31% 30.35 in 10.0 mi NW 10.4 mph 20.7 mph N/A   Clear
3:16 AM 42.8 °F 35.8 °F 14.0 °F 31% 30.35 in 10.0 mi WNW 13.8 mph 27.6 mph N/A   Clear
3:35 AM 42.8 °F 35.4 °F 14.0 °F 31% 30.33 in 10.0 mi WNW 15.0 mph 24.2 mph N/A   Clear
3:56 AM 42.8 °F 34.5 °F 12.2 °F 29% 30.33 in 10.0 mi West 18.4 mph 25.3 mph N/A   Clear
4:16 AM 42.8 °F 35.4 °F 12.2 °F 29% 30.32 in 10.0 mi WNW 15.0 mph 24.2 mph N/A   Clear
4:36 AM 41.0 °F 34.3 °F 12.2 °F 31% 30.33 in 10.0 mi WNW 11.5 mph 20.7 mph N/A   Clear
4:56 AM 41.0 °F 36.4 °F 14.0 °F 33% 30.32 in 10.0 mi NNW 6.9 mph - N/A   Clear
5:15 AM 41.0 °F 35.8 °F 14.0 °F 33% 30.33 in 10.0 mi WNW 8.1 mph - N/A   Clear
5:36 AM 41.0 °F 35.8 °F 14.0 °F 33% 30.32 in 10.0 mi NNW 8.1 mph - N/A   Clear
5:55 AM 41.0 °F 36.4 °F 14.0 °F 33% 30.32 in 10.0 mi North 6.9 mph - N/A   Clear
6:16 AM 41.0 °F 36.4 °F 15.8 °F 36% 30.31 in 10.0 mi NNW 6.9 mph - N/A   Clear
6:36 AM 39.2 °F 33.6 °F 15.8 °F 39% 30.31 in 10.0 mi NNW 8.1 mph - N/A   Clear
6:56 AM 37.4 °F 31.4 °F 15.8 °F 41% 30.31 in 10.0 mi NNW 8.1 mph - N/A   Clear
7:16 AM 39.2 °F 33.6 °F 14.0 °F 36% 30.31 in 10.0 mi NNW 8.1 mph - N/A   Clear
7:35 AM 41.0 °F 35.8 °F 14.0 °F 33% 30.31 in 10.0 mi NNW 8.1 mph - N/A   Clear
7:56 AM 41.0 °F 34.7 °F 12.2 °F 31% 30.31 in 10.0 mi NNW 10.4 mph 18.4 mph N/A   Clear
8:16 AM 42.8 °F 38.0 °F 12.2 °F 29% 30.29 in 10.0 mi NNW 8.1 mph - N/A   Clear
8:36 AM 41.0 °F 37.1 °F 12.2 °F 31% 30.29 in 10.0 mi North 5.8 mph - N/A   Clear
8:56 AM 42.8 °F 39.3 °F 10.4 °F 27% 30.29 in 10.0 mi North 5.8 mph - N/A   Clear
9:16 AM 44.6 °F 40.7 °F 10.4 °F 25% 30.29 in 10.0 mi North 6.9 mph - N/A   Clear
9:36 AM 46.4 °F 44.3 °F 10.4 °F 23% 30.29 in 10.0 mi North 4.6 mph - N/A   Clear
9:56 AM 50.0 °F - 10.4 °F 20% 30.29 in 10.0 mi West 5.8 mph - N/A   Clear
10:16 AM 50.0 °F - 12.2 °F 22% 30.28 in 10.0 mi SW 3.5 mph - N/A   Clear
10:36 AM 53.6 °F - 12.2 °F 19% 30.28 in 10.0 mi East 3.5 mph - N/A   Clear
10:56 AM 51.8 °F - 14.0 °F 22% 30.27 in 10.0 mi SE 6.9 mph - N/A   Clear
11:15 AM 53.6 °F - 8.6 °F 16% 30.26 in 10.0 mi WSW 6.9 mph 17.3 mph N/A   Clear
11:35 AM 53.6 °F - 10.4 °F 18% 30.26 in 10.0 mi SW 5.8 mph 23.0 mph N/A   Clear
11:55 AM 55.4 °F - 10.4 °F 17% 30.25 in 10.0 mi West 4.6 mph - N/A   Clear
12:15 PM 55.4 °F - 10.4 °F 17% 30.24 in 10.0 mi West 6.9 mph 19.6 mph N/A   Clear
12:36 PM 53.6 °F - 10.4 °F 18% 30.23 in 10.0 mi West 10.4 mph 20.7 mph N/A   Clear
12:56 PM 53.6 °F - 8.6 °F 16% 30.21 in 10.0 mi NNW 8.1 mph 27.6 mph N/A   Clear
1:16 PM 53.6 °F - 6.8 °F 15% 30.21 in 10.0 mi WNW 8.1 mph 29.9 mph N/A   Clear
1:36 PM 53.6 °F - 5.0 °F 14% 30.20 in 10.0 mi West 8.1 mph 38.0 mph N/A   Clear
1:56 PM 53.6 °F - 5.0 °F 14% 30.19 in 10.0 mi WNW 13.8 mph 32.2 mph N/A   Clear
2:16 PM 55.4 °F - 8.6 °F 15% 30.18 in 10.0 mi NNW 6.9 mph 25.3 mph N/A   Clear
2:36 PM 53.6 °F - 8.6 °F 16% 30.17 in 10.0 mi WNW 9.2 mph 17.3 mph N/A   Clear
2:56 PM 53.6 °F - 5.0 °F 14% 30.16 in 10.0 mi WNW 6.9 mph 28.8 mph N/A   Clear
3:16 PM 53.6 °F - 5.0 °F 14% 30.15 in 10.0 mi NW 8.1 mph 19.6 mph N/A   Clear
3:36 PM 53.6 °F - 5.0 °F 14% 30.14 in 10.0 mi WNW 13.8 mph 29.9 mph N/A   Clear
3:56 PM 53.6 °F - 3.2 °F 13% 30.15 in 10.0 mi West 12.7 mph 33.4 mph N/A   Clear
4:16 PM 53.6 °F - 3.2 °F 13% 30.15 in 10.0 mi West 20.7 mph 41.4 mph N/A   Clear
4:36 PM 53.6 °F - 3.2 °F 13% 30.15 in 10.0 mi West 23.0 mph 38.0 mph N/A   Clear
4:56 PM 53.6 °F - 3.2 °F 13% 30.15 in 10.0 mi NW 12.7 mph 27.6 mph N/A   Clear
5:16 PM 51.8 °F - 3.2 °F 14% 30.14 in 10.0 mi NW 16.1 mph 27.6 mph N/A   Clear
5:36 PM 51.8 °F - 3.2 °F 14% 30.14 in 10.0 mi WNW 8.1 mph 33.4 mph N/A   Clear
5:56 PM 51.8 °F - 5.0 °F 15% 30.14 in 10.0 mi NW 13.8 mph 29.9 mph N/A   Clear
6:16 PM 51.8 °F - 5.0 °F 15% 30.14 in 10.0 mi WNW 12.7 mph 26.5 mph N/A   Clear
6:36 PM 50.0 °F - 6.8 °F 17% 30.15 in 10.0 mi NW 10.4 mph 17.3 mph N/A   Clear
6:55 PM 48.2 °F - 8.6 °F 20% 30.15 in 10.0 mi NNW 5.8 mph - N/A   Clear
7:16 PM 46.4 °F 45.2 °F 8.6 °F 22% 30.16 in 10.0 mi NNW 3.5 mph - N/A   Clear
7:36 PM 46.4 °F 44.3 °F 10.4 °F 23% 30.17 in 10.0 mi North 4.6 mph - N/A   Clear
7:56 PM 46.4 °F 41.9 °F 10.4 °F 23% 30.17 in 10.0 mi NW 9.2 mph - N/A   Clear
8:16 PM 44.6 °F 41.4 °F 12.2 °F 27% 30.15 in 10.0 mi North 5.8 mph 16.1 mph N/A   Clear
8:36 PM 44.6 °F 41.4 °F 12.2 °F 27% 30.15 in 10.0 mi NNW 5.8 mph - N/A   Clear
8:56 PM 44.6 °F 40.2 °F 14.0 °F 29% 30.15 in 10.0 mi North 8.1 mph 16.1 mph N/A   Clear
9:16 PM 44.6 °F 41.4 °F 14.0 °F 29% 30.16 in 10.0 mi North 5.8 mph - N/A   Clear
9:36 PM 44.6 °F 42.2 °F 14.0 °F 29% 30.16 in 10.0 mi North 4.6 mph - N/A   Clear
9:56 PM 44.6 °F 38.8 °F 12.2 °F 27% 30.15 in 10.0 mi WNW 11.5 mph 19.6 mph N/A   Clear
10:16 PM 44.6 °F 40.2 °F 12.2 °F 27% 30.14 in 10.0 mi WNW 8.1 mph 23.0 mph N/A   Clear
10:36 PM 44.6 °F 40.7 °F 12.2 °F 27% 30.15 in 10.0 mi WNW 6.9 mph - N/A   Clear
10:56 PM 44.6 °F 42.2 °F 12.2 °F 27% 30.15 in 10.0 mi WNW 4.6 mph - N/A   Clear
11:16 PM 44.6 °F 39.2 °F 12.2 °F 27% 30.15 in 10.0 mi West 10.4 mph 16.1 mph N/A   Clear
11:36 PM 44.6 °F 42.2 °F 12.2 °F 27% 30.15 in 10.0 mi WNW 4.6 mph - N/A   Clear
11:56 PM 44.6 °F - 12.2 °F 27% 30.14 in 10.0 mi Calm Calm - N/A   Clear